STARLINK-4067 (52668 NORAD) Tracking and Keplerian Element Data

This shows tracking and keplerian element data for the satellite.

Feedback or suggestion? Click here.




ElementValue
Catalog52668
NameSTARLINK-4067
Epoch Orbit130
Epoch Day192.91667824
Epoch Year2022
RAAN35.3933
Inclination53.2175
Eccentricity0.0001743
Argument of Perigee43.2359
Mean Anonmoly42.7141
Mean Motion15.19856955
Decay Rate-0.00725821
L11 52668U 22053N 22192.91667824 -.00725821 00000+0 -35869-1 0 9996
L22 52668 53.2175 35.3933 0001743 43.2359 42.7141 15.19856955 1306

Live tracking and technical data element details for STARLINK-4067 (NORAD 52668). STARLINK-4067 can be tracked NOW for your location showing map with azimuth and elevation plus other details from your city location.

Track the satellite on the map from your city or location and see movement details for azimuth, elevation, latitude, longitude, range, height, and movement on the map or in text.







IsCatalogInMostPopularTable: catalog: 52668, numindb: 7
Update: records affected: 1



GetName: 52668 STARLINK-4067

Hit Count: updated at: Sun, 14 Aug 2022 01:27:33 GMT